Regional Weather Roundup
Issued by NWS

Home | Current Version | Previous Version | Graphics & Text | Print | Product List | Glossary On
Versions: 1 2 3 4 5 6 7 8 9 10 11 12 13 14 15 16 17 18 19 20 21 22 23 24 25 26 27 28 29 30 31 32 33 34 35 36 37 38 39 40 41 42 43 44 45 46 47 48 49 50
000
ASUS43 KFSD 212102
RWRSD

WEATHER ROUNDUP FOR SOUTH DAKOTA
NATIONAL WEATHER SERVICE SIOUX FALLS SD
400 PM CDT SAT OCT 21 2017

NOTE: "FAIR" INDICATES FEW OR NO CLOUDS BELOW 12,000 FEET WITH NO
SIGNIFICANT WEATHER AND/OR OBSTRUCTIONS TO VISIBILITY.


SDZ001>005-009-010-012>017-212200-
NORTHWEST AND NORTH CENTRAL SOUTH DAKOTA

CITY           SKY/WX    TMP DP  RH WIND       PRES   REMARKS
BUFFALO          N/A     54  24  31 W33G49    29.72R
MOBRIDGE       CLOUDY    54  39  57 W17       29.69R
$$

SDZ012>016-024>037-041>051-057-063-072>074-212200-
SOUTHWEST AND SOUTH CENTRAL SOUTH DAKOTA

CITY           SKY/WX    TMP DP  RH WIND       PRES   REMARKS
RAPID CTY ARPT SUNNY     58  21  24 NW18G29   29.84R
PIERRE         CLOUDY    57  36  45 W23G30    29.76R
CUSTER         LGT RAIN  44  13  28 W20G31    29.89R
ELLSWORTH AFB  MOSUNNY   57  22  25 N25       29.83R
PHILIP         MOSUNNY   60  29  30 W31G40    29.80R
PINE RIDGE     SUNNY     59  19  21 NW22G37   29.87R
SPEARFISH      FAIR      50  19  29 W20G29    29.86R
WINNER         FAIR      58  34  40 NW21G30   29.82R
$$

SDZ004>011-016>023-039-040-212200-
NORTHEAST SOUTH DAKOTA

CITY           SKY/WX    TMP DP  RH WIND       PRES   REMARKS
ABERDEEN       LGT RAIN  49  44  83 W9        29.71R
WATERTOWN      CLOUDY    51  41  68 W21G32    29.68R
BROOKINGS      CLOUDY    53  41  63 W18G28    29.72R
SISSETON         N/A     57  43  59 W22G35    29.62R
$$

SDZ017-020-022-023-036>040-048>070-212200-
SOUTHEAST SOUTH DAKOTA

CITY           SKY/WX    TMP DP  RH WIND       PRES   REMARKS
SIOUX FALLS    LGT RAIN  55  42  61 NW17G29   29.74R
HURON          CLOUDY    50  43  77 W12       29.76R
CHAMBERLAIN    CLOUDY    58  37  44 W18G29    29.81R
MITCHELL       CLOUDY    52  41  66 W15       29.79R
YANKTON        CLOUDY    54  40  59 W22G29    29.80R
$$

ABBREVIATIONS USED IN REMARKS
   TC - TEMPERATURE IN CELSIUS
  WCI - WIND CHILL INDEX
   HX - HEAT INDEX
  VSB - VISIBILITY




USA.gov is the U.S. government's official web portal to all federal, state and local government web resources and services.